Regional Weather Roundup
Issued by NWS

Current Version | Previous Version | Text Only | Print | Product List | Glossary On
Versions: 1 2 3 4 5 6 7 8 9 10 11 12 13 14 15 16 17 18 19 20 21 22 23 24 25 26 27 28 29 30 31 32 33 34 35 36 37 38 39 40 41 42 43 44 45 46 47 48
000
ASUS42 KFFC 091803
RWRGA
WEATHER ROUNDUP FOR GEORGIA
NATIONAL WEATHER SERVICE PEACHTREE CITY GA
100 PM EST TUE FEB 09 2016

NOTE: "FAIR" INDICATES FEW OR NO CLOUDS BELOW 12,000 FEET WITH NO
SIGNIFICANT WEATHER AND/OR OBSTRUCTIONS TO VISIBILITY.

* = USE WITH CAUTION. THE STATIONS MARKED WITH AN ASTERISK MAY NOT
REPORT WEATHER SUCH AS PRECIPITATION, FOG, OR THUNDER AND ARE NOT
QUALITY CONTROLLED BY NWS.

THE REMARK "TC" DENOTES TEMPERATURE READING IN DEGREES CELSIUS.

GAZ001>058-091900-
NORTH GEORGIA

CITY           SKY/WX    TMP DP  RH WIND       PRES   REMARKS
ATLANTA        CLOUDY    36  17  46 W12G25    29.83F WCI  28
6HR MIN TEMP:  33; 6HR MAX TEMP:  37; 6HR PCP: TRACE;

ATHENS         LGT SNOW  34  27  75 NW8       29.81F WCI  27
6HR MIN TEMP:  34; 6HR MAX TEMP:  36; 6HR PCP:  0.01;

CHAMBLEE       CLOUDY    34  22  61 W14G25    29.82F WCI  25
6HR MIN TEMP:  32; 6HR MAX TEMP:  37; 6HR PCP: TRACE;

PEACHTREE CITY CLOUDY    36  19  50 W13G25    29.86F WCI  27
6HR MIN TEMP:  33; 6HR MAX TEMP:  36; 6HR PCP: TRACE;

ROME           LGT SNOW  30  26  85 W12G20    29.87S VSB 3/4 WCI  20
6HR MIN TEMP:  30; 6HR MAX TEMP:  34; 6HR PCP:  0.04;

WEST ATLANTA   CLOUDY    36  16  44 W14G20    29.84F WCI  27
6HR MIN TEMP:  34; 6HR MAX TEMP:  37; 6HR PCP: TRACE;

GAINESVILLE    CLOUDY    33  21  61 W12G18    29.79F WCI  24
6HR MIN TEMP:  29; 6HR MAX TEMP:  33; 6HR PCP: TRACE;

CARTERSVILLE   CLOUDY    33  25  72 VRB5      29.87S WCI  29
6HR MIN TEMP:  30; 6HR MAX TEMP:  36; 6HR PCP:  0.03;



CITY           SKY/WX    TMP DP  RH WIND       PRES   REMARKS
LAWRENCEVILLE* LGT SNOW  34  27  75 W12G21    29.80F WCI  25
MARIETTA       FLURRIES  35  20  54 W15G26    29.82S WCI  25
KENNESAW*      CLOUDY    32  23  69 NW14      29.83F WCI  22
BLAIRSVILLE*   LGT SNOW  28   4  34 NW6       29.77S WCI  22
$$

GAZ059>098-102>109-091900-
CENTRAL GEORGIA

CITY           SKY/WX    TMP DP  RH WIND       PRES   REMARKS
AUGUSTA-BUSH   CLOUDY    40  24  53 W16       29.82F WCI  31
6HR MIN TEMP:  38; 6HR MAX TEMP:  42;

AUGUSTA-DANIEL CLOUDY    39  23  52 W10G20    29.82F WCI  32
6HR MIN TEMP:  37; 6HR MAX TEMP:  41;

COLUMBUS       CLOUDY    40  16  37 W18G28    29.90F WCI  31
6HR MIN TEMP:  37; 6HR MAX TEMP:  41;

MACON          CLOUDY    40  19  43 W17G26    29.87F WCI  31
6HR MIN TEMP:  37; 6HR MAX TEMP:  41;

ROBINS AFB     CLOUDY    42  16  35 W14G23    29.87F


CITY           SKY/WX    TMP DP  RH WIND       PRES   REMARKS
LAGRANGE*      CLOUDY    41  28  60 NW18      29.89S
SYLVANIA*      CLOUDY    44  27  50 W14G25    29.84F
MILLEDGEVILLE* CLOUDY    39  19  45 W10G21    29.86F WCI  32
$$

GAZ099>101-110>166-091900-
SOUTH GEORGIA

CITY           SKY/WX    TMP DP  RH WIND       PRES   REMARKS
SAVANNAH       CLOUDY    44  23  43 W29G37    29.85F
6HR MIN TEMP:  35; 6HR MAX TEMP:  48;

VALDOSTA       SUNNY     51  21  30 VRB6      29.94F
6HR MIN TEMP:  36; 6HR MAX TEMP:  51;

ALMA           MOSUNNY   47  22  37 W14G25    29.90F
6HR MIN TEMP:  36; 6HR MAX TEMP:  47;

ST SIMONS      MOSUNNY   49  24  37 W16G35    29.88F
6HR MIN TEMP:  40; 6HR MAX TEMP:  49;

FT STEWART     CLOUDY    45  24  43 W18G29    29.85F
ALBANY         MOSUNNY   47  18  31 W18G29    29.94F
HUNTER AFB     CLOUDY    45  26  47 W17G26    29.83F
MOODY AFB      SUNNY     49  19  29 W26G36    29.92F
BRUNSWICK      MOSUNNY   50  27  40 W18G30    29.90F


CITY           SKY/WX    TMP DP  RH WIND       PRES   REMARKS
BAINBRIDGE*    SUNNY     52  25  35 W23       29.98F
MOULTRIE*      SUNNY     46  23  39 W13G29    29.96F
VIDALIA*       CLOUDY    41  27  56 W10G17    29.88F
WAYCROSS*      PTSUNNY   52  27  38 W16G25    29.90F
DOUGLAS*       PTSUNNY   48  21  34 W15G24    29.92F
$$



USA.gov is the U.S. government's official web portal to all federal, state and local government web resources and services.